Location: Ch�tillon
(48.8024°N, 2.2935°E)
Time: 16:18:41
(UTC+00:00)

Cosmos 1697 Rocket - Pass Details

Date: 31 May 2022
Orbit: 833 x 843 km, 71.0° (Epoch: 29 June)

Event Time Altitude Azimuth Distance (km) Brightness Sun altitude
Rises 21:04:55 0° 254° (WSW) 3,396 6.2 -10.3°
Reaches altitude 10° 21:07:57 10° 269° (W) 2,464 5.7 -10.6°
Maximum altitude 21:12:14 22° 319° (NW) 1,783 5.5 -11.1°
Drops below altitude 10° 21:16:32 10° 9° (N) 2,471 5.8 -11.5°
Sets 21:19:36 0° 25° (NNE) 3,407 6.3 -11.8°
